496  
ASUS44 KEWX 230211  
RWREWX  
SOUTH TEXAS REGIONAL WEATHER ROUNDUP  
NATIONAL WEATHER SERVICE AUSTIN/SAN ANTONIO TX  
800 PM CST SUN JAN 22 2017  
 
NOTE: "FAIR" INDICATED FEW OR NO CLOUDS BELOW 12,000 FEET WITH NO  
SIGNIFICANT WEATHER AND/OR S TO VISIBILITY
.  
 
* - THESE STATIONS ARE NOT NWS OR FAA STATIONS...AND ARE NOT SUBJECT  
TO NWS AND FAA QUALITY CONTROL.
 
 
TXZ171-172-183>190-230300-  
TEXAS HILL COUNTRY AND EDWARDS PLATEAU  
 
CITY SKY/WX TMP DP RH WIND PRES REMARKS
 
JUNCTION CLEAR 51 31 46 NW5 30.00R  
*LLANO NOT AVBL  
BURNET CLEAR 58 29 33 NW10 N/A  
*HORSESHOE BAY NOT AVBL  
*KERRVILLE NOT AVBL  
*FREDERICKSBRG NOT AVBL  
*ROCKSPRINGS CLEAR 50 32 50 CALM 30.04R  
*BOERNE STAGE CLEAR 54 32 43 NW3 29.98R  
*CASTROVILLE CLEAR 58 30 33 NW3 29.99R  
HONDO CLEAR 54 30 40 NW8 29.98R  
*UVALDE CLEAR 57 30 36 CALM 30.00R  
DEL RIO CLEAR 56 28 34 NW9 29.99R  
LAUGHLIN AFB CLEAR 55 33 44 N5 30.00R  
CARRIZO SPRGS CLEAR 61 27 27 NW3 29.99R  
*EAGLE PASS N/A N/A N/A N/A MISG N/A  

 
 
TXZ173-191>194-202-209-217>225-228-230300-  
CENTRAL AND SOUTH CENTRAL TEXAS  
 
CITY SKY/WX TMP DP RH WIND PRES REMARKS
 
GEORGETOWN CLEAR 61 30 31 NW12G17 29.92R  
AUSTIN/BERGSTM CLEAR 63 31 30 NW7 29.93R  
AUSTIN/MABRY CLEAR 62 32 32 VRB6 29.94R  
*AUSTIN/EXEC FAIR 59 32 36 NW8 29.93R  
*LAGO VISTA CLEAR 60 30 32 NW10G17 29.94R  
SAN MARCOS CLEAR 55 34 44 NW3 29.95R  
NEW BRAUNFELS CLEAR 57 34 41 NW9 29.94R  
RANDOLPH AFB CLEAR 56 34 43 W6 29.96R  
PT SAN ANTONIO CLEAR 60 33 35 NW5 29.94R  
SAN ANTONIO CLEAR 60 33 36 NW3 29.97R  
STINSON FIELD CLEAR 63 32 31 NW7 29.95R  
*PLEASANTON CLEAR 59 34 38 NW5 29.97R  
*LA GRANGE CLEAR 62 37 40 NW8 29.89R  
*GIDDINGS CLEAR 60 34 37 NW13 29.91R  
*GONZALES CLEAR 58 37 44 NW5 29.92R  

 
 
TXZ163>164-176>182-195>201-210>213-226-227-235-230300-  
SOUTHEAST TEXAS  
 
CITY SKY/WX TMP DP RH WIND PRES REMARKS
 
COLLEGE STN CLEAR 60 38 43 NW13 29.87R  
*BRYAN CLEAR 58 38 48 NW10 29.89R  
*CALDWELL NOT AVBL  
*CROCKETT N/A N/A N/A N/A MISG N/A  
*BRENHAM CLEAR 63 38 39 NW16G22 29.88R  
HUNTSVILLE CLEAR 61 37 41 NW13G21 29.83R  
CONROE CLEAR 61 39 44 NW17G26 29.82R  
HOUSTON BUSH CLEAR 62 41 46 NW17G25 29.82R  
HOUSTON HOBBY CLEAR 64 41 42 NW17G32 29.81R  
*HOUSTON SW AP CLEAR 60 43 54 W10 29.85R  
PEARLAND CLEAR 64 41 42 NW14 29.83R  
HOUSTON HOOKS CLEAR 62 39 42 NW15G26 29.82R  
ELLINGTON FLD CLEAR 63 43 48 NW17G25 29.82R  
SUGAR LAND NOT AVBL  
*HOUSTON EXEC PTCLDY 59 39 47 NW12 29.86R  
*CLEVELAND MUN CLEAR 61 42 49 NW14G22 29.81R  
*WHARTON CLEAR 58 43 57 W9 29.88R  
*COLUMBUS FAIR 62 32 33 NW10G17 29.89R  
*EAGLE LAKE CLEAR 64 41 43 NW13G20 29.87R  

 
 
TXZ214>216-236>238-230300-  
THE UPPER TEXAS COAST  
 
CITY SKY/WX TMP DP RH WIND PRES REMARKS
 
*ORANGE PTCLDY 62 45 53 NW12G26 29.74R  
PORT ARTHUR CLEAR 60 44 55 NW14 29.75R  
GALVESTON CLEAR 64 47 53 NW16G23 29.81R  
ANGLETON N/A 61 45 55 NW7 29.84R  
*BAY CITY CLEAR 56 47 71 W3 29.87R  
PALACIOS CLEAR 58 44 60 NW8 29.88R  

 
 
TXZ229>234-239>247-230300-  
TEXAS COASTAL BEND AND RIO GRANDE PLAINS  
 
CITY SKY/WX TMP DP RH WIND PRES REMARKS
 
VICTORIA CLEAR 57 43 59 W7 29.91R  
*BEEVILLE CLEAR 62 38 40 N5 29.94R  
ROCKPORT CLEAR 63 46 54 NW10 29.91R  
*PORT ARANSAS CLEAR 64 45 50 NW8 29.92R  
*PORT LAVACA CLEAR 58 46 62 CALM 29.90R  
*INGLESIDE CLEAR 62 37 39 NW12 29.92R  
CORPUS CHRISTI CLEAR 63 31 30 NW10 29.93R  
CORPUS NAS CLEAR 66 46 48 NW14 29.93R  
*ROBSTOWN CLEAR 64 32 30 NW6 29.94R  
ALICE CLEAR 62 29 28 NW7 29.94R  
KINGSVILLE NAS CLEAR 63 31 30 NW8 29.94R  
COTULLA CLEAR 60 29 30 NW5 29.98R  
*FAITH RANCH CLEAR 61 23 23 N8 29.99R  
LAREDO CLEAR 63 24 22 NW6 29.99R  

 
 
TXZ248>255-230300-  
DEEP SOUTH TEXAS  
 
CITY SKY/WX TMP DP RH WIND PRES REMARKS
 
BROWNSVILLE CLEAR 70 25 18 N9 29.96R  
PORT ISABEL CLEAR 67 30 25 NW8 29.95R  
*SOUTH PADRE NOT AVBL  
HARLINGEN CLEAR 62 32 32 NW8 29.95R  
*HEBBRONVILLE CLEAR 61 24 24 N8 29.98R  
MCALLEN CLEAR 71 23 16 N10 29.96R  
*WESLACO CLEAR 68 25 19 N13 29.95R  
FALFURRIAS CLEAR 65 23 20 W6 29.96R  
EDINBURG CLEAR 65 19 16 N6 29.97R  
*ZAPATA CLEAR 64 19 17 N5 29.97R  

 
 
TXZ213>215-236>238-242>244-246-247-251-254-255-230300-  
CMAN STATIONS  
 
STATION/POSITION TIME TEMP WIND PRES WAVE
 
AIR SEA DIR/SP/G HT/PER  
(UTC) (F) (DEG/KT/KT) (MB) (FT/S)  
SABINE PASS 0142 61 67 300/ 13/ 18 1008.4  
SEA RIM ST PARK 0100 60 310/ 16/ 21 1007.4  
NORTH JETTY/GLS 0148 300/ 20/ 23 N/A  
EAGLE POINT 0142 63 65 310/ 9/ 18 1008.9  
MORGANS POINT 0142 63 64 300/ 13/ 21 1008.9  
PORT O'CONNOR 0142 62 280/ 8/ 11 1011.9  
PORT ARANSAS 0100 68 61 320/ 10/ 11 1012.2  
MALAQUITE BEACH 0148 69 63 310/ 10/ 12 1013.9  
BAFFIN BAY 0148 67 63 290/ 12/ 14 1013.7  
PORT ISABEL 0148 68 67 310/ 4/ 9 1014.1  

 
 
 
CLICK HERE TO GO TO PREVIOUS BULLETINS.

The Nexlab TX Page Main Text Page